Victoria, British Columbia

10:52 AM PDT on September 01, 2015 (GMT -0700)
Victoria International | | Change Station
CLOSE
Current Station
Airport
Location: Victoria,
Elevation: 62 ft
Nearby Weather Stations

Elev 62 ft 48.65 °N, 123.43 °W | Updated 52 minutes ago

Overcast
Overcast
57 °F
Feels Like 57 °F
N
12
Wind Variable Wind from ESE

Today is forecast to be nearly the same temperature as yesterday.

Today
High -- | Low -- °F
--% Chance of Precip.
Yesterday
High -- | Low -- °F
Precip. -- in
6:30 AM 7:55 PM
Waning Gibbous, 87% visible
Pressure 29.81 in
Visibility 20.0 miles
Clouds Few 600 ft
Mostly Cloudy 5000 ft
Overcast 8000 ft
Dew Point 55 °F
Humidity 94%
Rainfall 0.00 in
Snow Depth Not available.
UV 1 out of 12
Pollen Not available.
Air Quality Not available.
Flu Activity Not available.
METAR CYYJ 011700Z 12010KT 20SM FEW006 BKN050 OVC080 14/13 A2981 RMK SF1SC6AC2 SF TR SLP095
Pressure 29.81 in
Visibility 20.0 miles
Clouds Few 600 ft
Mostly Cloudy 5000 ft
Overcast 8000 ft
Dew Point 55 °F
Humidity 94%
Rainfall 0.00 in
Snow Depth Not available.
UV 1 out of 12
Pollen Not available.
Air Quality Not available.
Flu Activity Not available.
METAR CYYJ 011700Z 12010KT 20SM FEW006 BKN050 OVC080 14/13 A2981 RMK SF1SC6AC2 SF TR SLP095

10-Day Weather Forecast

×

Almanac

Astronomy

Sep. 01, 2015 Rise Set
Actual Time
Civil Twilight
Nautical Twilight
Astronomical Twilight
Moon
Length of Visible Light
Length of Day
Tomorrow will be .
, % of the Moon is Illuminated

Today's Extremes

Country Highs Country Lows

Community

WunderPhotos

Upload Photos

1,851,569 photos uploaded!

WunderBlogs® & News

Nearby

Air Quality

  Air Quality AQ Index Pollutant
Not available.

Snow Depth

Station Depth Elevation

Earthquake Activity

City Distance Mag. Time & Date
Minimum magnitude displayed is 2.5.

Coastal Water Temperatures

Place Temperature

Stations

Nearby Weather Stations

Station Location Temp. Windchill Dew Point Humidity Wind Precip. Elev Updated Type